Washington County, Minnesota, United States
Lat: 45.02N, Lon: 92.88W
Wx Zone: MNZ063
Local Info
Past Weather Observations for Today

NOTE: This archive is for the closest National Weather Service station to Washington County. Information may differ from the station used for current weather conditions.

Time Weather Temperature Dewpoint Humidity Pressure Winds Precip Visibility
17:53
Overcast
45°F / 7°C 41°F / 5°C 87% 29.68 in
(1005 mb)
W 8.1 mph
(W 13 kph)
- 9SM
16:53
Overcast
Fog And Mist
45°F / 7°C 43°F / 6°C 93% 29.71 in
(1006 mb)
SSW 3.5 mph
(SSW 6 kph)
- 6SM
15:53
Overcast
43°F / 6°C 41°F / 5°C 93% 29.68 in
(1005 mb)
Calm - 8SM
15:17
Overcast
45°F / 7°C 41°F / 5°C 87% 29.68 in
(1005 mb)
S 4.6 mph
(S 7 kph)
- 8SM
15:04
Overcast
45°F / 7°C 41°F / 5°C 87% 29.68 in
(1005 mb)
SSE 4.6 mph
(SSE 7 kph)
- 7SM
14:53
Overcast
43°F / 6°C 41°F / 5°C 93% 29.68 in
(1005 mb)
SSE 3.5 mph
(SSE 6 kph)
- 7SM
14:31
Overcast
43°F / 6°C 41°F / 5°C 93% 29.68 in
(1005 mb)
ESE 3.5 mph
(ESE 6 kph)
- 8SM
13:53
Overcast
Fog And Mist
43°F / 6°C 41°F / 5°C 93% 29.71 in
(1006 mb)
SE 4.6 mph
(SE 7 kph)
0.01 in
(0.25 mm)
4SM
13:42
Overcast
Fog And Mist
43°F / 6°C 41°F / 5°C 93% 29.71 in
(1006 mb)
E 4.6 mph
(E 7 kph)
0.01 in
(0.25 mm)
3SM
13:18
Overcast
Light Rain
43°F / 6°C 41°F / 5°C 93% 29.71 in
(1006 mb)
E 4.6 mph
(E 7 kph)
0.01 in
(0.25 mm)
2SM
12:53
Overcast
Light Rain
43°F / 6°C 41°F / 5°C 93% 29.71 in
(1006 mb)
ESE 3.5 mph
(ESE 6 kph)
0.05 in
(1.27 mm)
1 3/4SM
12:42
Overcast
Light Rain
43°F / 6°C 41°F / 5°C 93% 29.71 in
(1006 mb)
E 4.6 mph
(E 7 kph)
0.04 in
(1.02 mm)
1 3/4SM
12:16
Overcast
Light Rain
43°F / 6°C 41°F / 5°C 93% 29.71 in
(1006 mb)
E 6.9 mph
(E 11 kph)
0.02 in
(0.51 mm)
1 1/2SM
12:12
Overcast
Light Rain
43°F / 6°C 39°F / 4°C 87% 29.74 in
(1007 mb)
ESE 5.8 mph
(ESE 9 kph)
0.02 in
(0.51 mm)
1 1/4SM
11:53
Overcast
Light Rain
43°F / 6°C 39°F / 4°C 87% 29.74 in
(1007 mb)
E 6.9 mph
(E 11 kph)
0.03 in
(0.76 mm)
1 1/2SM
11:33
Overcast
Light Rain
41°F / 5°C 39°F / 4°C 93% 29.74 in
(1007 mb)
E 6.9 mph
(E 11 kph)
0.01 in
(0.25 mm)
2SM
11:23
Overcast
Light Rain
41°F / 5°C 39°F / 4°C 93% 29.74 in
(1007 mb)
E 6.9 mph
(E 11 kph)
0.00 in
(0.00 mm)
3SM
10:53
Overcast
Light Rain
41°F / 5°C 39°F / 4°C 93% 29.77 in
(1008 mb)
E 6.9 mph
(E 11 kph)
0.05 in
(1.27 mm)
8SM
10:15
Overcast
Light Rain
41°F / 5°C 39°F / 4°C 93% 29.77 in
(1008 mb)
E 6.9 mph
(E 11 kph)
0.04 in
(1.02 mm)
3SM
09:53
Overcast
Light Rain
41°F / 5°C 39°F / 4°C 93% 29.77 in
(1008 mb)
E 8.1 mph
(E 13 kph)
0.09 in
(2.29 mm)
5SM
09:15
Overcast
Light Rain
39°F / 4°C 37°F / 3°C 93% 29.77 in
(1008 mb)
ESE 9.2 mph
(ESE 15 kph)
0.04 in
(1.02 mm)
3SM
08:53
Overcast
Rain
39°F / 4°C 37°F / 3°C 93% 29.8 in
(1009 mb)
ESE 9.2 mph
(ESE 15 kph)
0.09 in
(2.29 mm)
3SM
08:50
Overcast
Light Rain
39°F / 4°C 37°F / 3°C 93% 29.8 in
(1009 mb)
ESE 11.5 mph
(ESE 19 kph)
0.08 in
(2.03 mm)
4SM
08:27
Overcast
Light Rain
39°F / 4°C 37°F / 3°C 93% 29.8 in
(1009 mb)
SE 9.2 mph
(SE 15 kph)
0.04 in
(1.02 mm)
4SM
07:53
Overcast
Light Rain
39°F / 4°C 37°F / 3°C 93% 29.8 in
(1009 mb)
ESE 9.2 mph
(ESE 15 kph)
0.07 in
(1.78 mm)
3SM
07:31
Overcast
Light Rain
39°F / 4°C 37°F / 3°C 93% 29.8 in
(1009 mb)
E 11.5 mph
(E 19 kph)
0.03 in
(0.76 mm)
5SM
06:53
Overcast
Light Rain
39°F / 4°C 37°F / 3°C 93% 29.8 in
(1009 mb)
E 13.8 mph
(E 22 kph)
0.11 in
(2.79 mm)
3SM
06:12
Overcast
Rain
39°F / 4°C 37°F / 3°C 93% 29.83 in
(1010 mb)
ESE 15 mph
(ESE 24 kph)
0.04 in
(1.02 mm)
3SM
05:53
Overcast
Light Rain
41°F / 5°C 37°F / 3°C 87% 29.83 in
(1010 mb)
ESE 16.1 mph
(ESE 26 kph)
0.04 in
(1.02 mm)
5SM
04:53
Overcast
Light Rain
43°F / 6°C 39°F / 4°C 87% 29.83 in
(1010 mb)
SE 13.8 mph
(SE 22 kph)
0.02 in
(0.51 mm)
6SM
04:16
Overcast
Light Rain
43°F / 6°C 39°F / 4°C 87% 29.86 in
(1011 mb)
SE 13.8 mph
(SE 22 kph)
0.02 in
(0.51 mm)
5SM
03:53
Overcast
Light Rain
43°F / 6°C 39°F / 4°C 87% 29.86 in
(1011 mb)
ESE 12.7 mph
(ESE 20 kph)
0.02 in
(0.51 mm)
4SM
03:24
Overcast
Light Rain
43°F / 6°C 39°F / 4°C 87% 29.89 in
(1012 mb)
SE 13.8 mph
(SE 22 kph)
0.01 in
(0.25 mm)
4SM
02:53
Overcast
Fog And Mist
43°F / 6°C 39°F / 4°C 87% 29.89 in
(1012 mb)
SE 13.8 mph
(SE 22 kph)
0.00 in
(0.00 mm)
5SM
02:13
Overcast
45°F / 7°C 37°F / 3°C 76% 29.89 in
(1012 mb)
SE 15 mph
(SE 24 kph)
0.00 in
(0.00 mm)
7SM
01:53
Overcast
45°F / 7°C 37°F / 3°C 76% 29.89 in
(1012 mb)
SE 16.1 mph
(SE 26 kph)
- 10SM
00:53
Overcast
45°F / 7°C 37°F / 3°C 76% 29.92 in
(1013 mb)
SE 17.3 mph
(SE 28 kph)
- 10SM
Time Weather Temperature Dewpoint Humidity Pressure Winds Precip Visibility


Weather for websites

WeatherForYou.com, LLC is not responsible for any damages or problems caused by this service. Current weather conditions are obtained from the closest station including government and personal stations which may have varying degrees of accuracy. Weather forecasts are derived from the NOAA NDFD. Like all things, this site belongs to Jesus Christ... He just trusts me to maintain it. If you have any questions or comments email webmaster@weatherforyou.com

Copyright © 2014, WeatherForYou.com LLC. All rights reserved.